Bloomington, IN

5:10 AM EDT on March 23, 2017 (GMT -0400)
Monroe County

Weather History for KBMG - May, 2013

Change the Weather History Date:

Tuesday, May 14, 2013

  Actual Average Record
Temperature  
Mean Temperature 65 °F 62 °F  
Max Temperature 84 °F 73 °F 84 °F (2013)
Min Temperature 46 °F 51 °F 39 °F (2000)
Degree Days  
Heating Degree Days 0 5  
Month to date heating degree days 71 83  
Since 1 July heating degree days 5259 5197  
Cooling Degree Days 0 2  
Month to date cooling degree days 9 16  
Year to date cooling degree days 21 35  
Growing Degree Days 15 (Base 50)    
Moisture  
Dew Point 48 °F    
Average Humidity 56    
Maximum Humidity 71    
Minimum Humidity 40    
Precipitation  
Precipitation 0.00 in 0.18 in 1.76 in (2014)
Month to date precipitation 2.28 2.47  
Year to date precipitation 17.68 17.12  
Sea Level Pressure  
Sea Level Pressure 29.95 in    
Wind  
Wind Speed 10 mph (SSW)    
Max Wind Speed 22 mph    
Max Gust Speed 31 mph    
Visibility 10 miles    
Events      
T = Trace of Precipitation, MM = Missing Value Source: NWS Daily Summary

Daily Weather History Graph

Daily Weather History Graph

Search for Another Location

Airport or City:

Trip Planner

Search our weather history database for the weather conditions in past years. The results will help you decide how hot, cold, wet, or windy it might be!

Date:

Astronomy

May. 14, 2013 Rise Set
Actual Time 6:34 AM EDT 8:52 PM EDT
Civil Twilight 6:03 AM EDT 9:22 PM EDT
Nautical Twilight 5:26 AM EDT 9:59 PM EDT
Astronomical Twilight 4:46 AM EDT 10:40 PM EDT
Moon 10:13 AM EDT (5/14) 12:00 AM EDT (5/14)
Length of Visible Light 15h 18m
Length of Day
14h 18m
Waxing Crescent, 19% of the Moon is Illuminated
May 14
Waxing Crescent
May 18
First Quarter
May 25
Full
May 31
Last Quarter
Jun 8
New

Hourly Weather History & Observations

Time (EDT) Temp. Windchill Dew Point Humidity Pressure Visibility Wind Dir Wind Speed Gust Speed Precip Events Conditions
12:53 AM 51.1 °F - 41.0 °F 68% 30.12 in 10.0 mi Calm Calm - N/A   Mostly Cloudy
1:53 AM 48.9 °F - 39.9 °F 71% 30.12 in 10.0 mi Calm Calm - N/A   Scattered Clouds
2:53 AM 50.0 °F - 37.9 °F 63% 30.09 in 10.0 mi SSE 3.5 mph - N/A   Clear
3:53 AM 48.0 °F - 37.0 °F 66% 30.08 in 10.0 mi SSE 4.6 mph - N/A   Clear
4:53 AM 46.0 °F 44.8 °F 37.9 °F 73% 30.06 in 10.0 mi South 3.5 mph - N/A   Clear
5:53 AM 51.1 °F - 34.0 °F 52% 30.04 in 10.0 mi South 9.2 mph - N/A   Clear
6:53 AM 51.1 °F - 34.0 °F 52% 30.04 in 10.0 mi South 10.4 mph - N/A   Clear
7:53 AM 50.0 °F - 36.0 °F 59% 30.04 in 10.0 mi SE 9.2 mph - N/A   Clear
8:53 AM 57.0 °F - 37.9 °F 49% 30.01 in 10.0 mi SSE 10.4 mph - N/A   Clear
9:53 AM 63.0 °F - 41.0 °F 45% 29.99 in 10.0 mi South 17.3 mph 21.9 mph N/A   Clear
10:53 AM 66.9 °F - 45.0 °F 45% 29.97 in 10.0 mi SSW 15.0 mph - N/A   Clear
11:53 AM 72.0 °F - 48.9 °F 44% 29.94 in 10.0 mi SW 13.8 mph 19.6 mph N/A   Clear
12:53 PM 75.9 °F - 52.0 °F 43% 29.92 in 10.0 mi SW 10.4 mph - N/A   Clear
1:53 PM 79.0 °F - 53.1 °F 40% 29.88 in 10.0 mi SSW 12.7 mph 23.0 mph N/A   Clear
2:53 PM 81.0 °F - 55.0 °F 41% 29.86 in 10.0 mi SSW 12.7 mph 20.7 mph N/A   Clear
3:53 PM 82.0 °F - 55.0 °F 39% 29.84 in 10.0 mi SW 20.7 mph 31.1 mph N/A   Clear
4:53 PM 84.0 °F - 57.0 °F 40% 29.84 in 10.0 mi SW 11.5 mph 21.9 mph N/A   Clear
5:53 PM 82.0 °F - 57.0 °F 42% 29.84 in 10.0 mi SW 18.4 mph 25.3 mph N/A   Clear
6:53 PM 81.0 °F - 57.0 °F 44% 29.84 in 10.0 mi WSW 16.1 mph 26.5 mph N/A   Clear
7:53 PM 80.1 °F - 55.9 °F 43% 29.83 in 10.0 mi SW 10.4 mph - N/A   Clear
8:53 PM 75.9 °F - 55.9 °F 50% 29.83 in 10.0 mi SW 8.1 mph - N/A   Clear
9:53 PM 73.0 °F - 57.9 °F 59% 29.84 in 10.0 mi South 5.8 mph - N/A   Clear
10:53 PM 70.0 °F - 57.9 °F 65% 29.85 in 10.0 mi South 6.9 mph - N/A   Clear
11:53 PM 70.0 °F - 57.0 °F 63% 29.85 in 10.0 mi South 5.8 mph - N/A   Clear